Location: Cutler
(25.6150°N, 80.3110°W)
Time: 11:01:38
(UTC-04:00)

Cosmos 2360 Rocket - Visible Passes

Search period start: 30 July 2016 00:00
Search period end: 09 August 2016 00:00
Orbit: 833 x 846 km, 71.0° (Epoch: 29 July)

Date Brightness Start Highest point End Pass type
(mag) Time Alt. Az. Time Alt. Az. Time Alt. Az.
30 Jul 2.1 05:25:10 25° SSW 05:28:28 68° WNW 05:34:05 10° NNE visible
31 Jul 2.1 05:10:31 37° SSW 05:12:49 74° WNW 05:18:27 10° NNE visible
01 Aug 2.1 04:55:47 53° SSW 04:57:10 80° WNW 05:02:48 10° NNE visible
02 Aug 2.0 04:41:01 75° SSW 04:41:30 86° WNW 04:47:09 10° NNE visible
03 Aug 2.1 04:26:11 80° NNE 04:26:11 80° NNE 04:31:30 10° NNE visible
04 Aug 2.6 04:11:17 59° NNE 04:11:17 59° NNE 04:15:50 10° NNE visible
05 Aug 3.1 03:56:21 44° NNE 03:56:21 44° NNE 04:00:10 10° NNE visible
05 Aug 4.3 05:38:51 10° WNW 05:39:00 10° WNW 05:39:09 10° WNW visible
06 Aug 3.6 03:41:22 34° NNE 03:41:22 34° NNE 03:44:29 10° NNE visible
06 Aug 4.2 05:23:10 11° WNW 05:23:17 11° WNW 05:24:48 10° NW visible
07 Aug 4.0 03:26:21 26° NNE 03:26:21 26° NNE 03:28:48 10° NNE visible
07 Aug 4.3 05:08:09 12° NW 05:08:09 12° NW 05:09:42 10° NW visible
08 Aug 4.4 03:11:18 21° NNE 03:11:18 21° NNE 03:13:07 10° NNE visible
08 Aug 4.3 04:53:05 12° NW 04:53:05 12° NW 04:54:27 10° NW visible
